Location: Ergnies
(50.0854°N, 2.0375°E)
Time: 16:11:10
(UTC+00:00)

ARIANE 6 FM1 Upper Stage - Pass Details

Date: 14 January 2026
Orbit: 522 x 608 km, 62.0° (Epoch: 18 February)

Event Time Altitude Azimuth Distance (km) Brightness Sun altitude
Exits shadow 05:14:23 38° 176° (S) 822 3.5 -23.5°
Drops below altitude 10° 05:17:05 10° 153° (SSE) 1,782 5.6 -23.1°
Sets 05:19:19 0° 149° (SSE) 2,680 6.7 -22.7°
